Regional Weather Roundup
Issued by NWS

Home | Current Version | Previous Version | Graphics & Text | Print | Product List | Glossary On
Versions: 1 2 3 4 5 6 7 8 9 10 11 12 13 14 15 16 17 18 19 20 21 22 23 24 25 26 27
000
ASUS45 KSLC 221410
RWRUT

UTAH REGIONAL WEATHER ROUNDUP
NATIONAL WEATHER SERVICE SALT LAKE CITY UT
800 AM MDT SUN APR 22 2018

UTZ001>011-023>025-221500-

NORTHERN UTAH

CITY           SKY/WX    TMP DP  RH WIND       PRES   REMARKS
BRIGHAM CITY   SUNNY     41  33  73 CALM      30.16R
HILL AFB       SUNNY     46  28  48 NE9       30.15R
LOGAN          SUNNY     45  34  65 CALM      30.17R
OGDEN          SUNNY     49  30  48 S5        30.14R
SALT LAKE CITY MOSUNNY   52  33  48 SE9       30.14R
TOOELE VALLEY  SUNNY     48  32  53 S10       30.14S
WENDOVER       SUNNY     48  30  49 CALM      30.14R
HEBER CITY       N/A     36  28  75 CALM      30.22S
WEST JORDAN    SUNNY     50  33  53 S7        30.16R

$$

UTZ011>015-024>027-221500-

CENTRAL/NORTHEAST UTAH

CITY           SKY/WX    TMP DP  RH WIND       PRES   REMARKS
PROVO AIRPORT  SUNNY     46  33  60 E5        30.18S
MOAB/CANYONLAN SUNNY     51  35  54 SE12      30.16R
DELTA          SUNNY     43  32  65 NE8       30.15R
PRICE          SUNNY     49  25  39 CALM      30.19S
RICHFIELD      SUNNY     37  34  87 CALM      30.21R
ROOSEVELT      SUNNY     45  34  65 CALM      30.23S
VERNAL         SUNNY     48  32  53 CALM      30.21R

$$

UTZ013>016-019>022-027-221500-

SOUTHERN UTAH

CITY           SKY/WX    TMP DP  RH WIND       PRES   REMARKS
BRYCE CANYON   MOSUNNY   35  25  66 W7        30.26R WCI  29
CEDAR CITY     MOSUNNY   41  31  67 CALM      30.15S
MILFORD        SUNNY     38  35  89 S7        30.15S WCI  33
ST GEORGE      SUNNY     53  26  35 S5        30.08R
HANKSVILLE     SUNNY     50  32  50 N5        30.18S
KANAB          SUNNY     48  25  40 N3        30.18S
BLANDING         N/A     53  27  36 N5        30.26R

$$

REGIONAL REPORTS     COLORADO/ARIZONA

CITY           SKY/WX    TMP DP  RH WIND       PRES   REMARKS
CRAIG, CO      SUNNY     36  34  92 CALM      30.25S
GRAND JUNCTION SUNNY     47  36  65 SE7       30.22R
RIFLE, CO      SUNNY     38  35  89 CALM      30.27S
MONTROSE, CO   SUNNY     41  31  67 SE6       30.27S
CORTEZ, CO     SUNNY     43  25  49 E3        30.20S
COLORADO CITY    N/A     41  32  70 E3        30.16S
PAGE, AZ       PTSUNNY   56  30  37 CALM      30.13R
GRAND CANYON   MOSUNNY   35  24  64 CALM      30.21R
KINGMAN, AZ    PTSUNNY   58  23  26 CALM      30.03S
FLAGSTAFF, AZ  MOSUNNY   36  22  56 CALM      30.22R

$$

REGIONAL REPORTS    NEVADA/IDAHO/WYOMING

CITY           SKY/WX    TMP DP  RH WIND       PRES   REMARKS
LAS VEGAS, NV  PTSUNNY   63  28  26 SW6       29.99R
ELY, NY        SUNNY     35  20  54 S10       30.19S WCI  27
ELKO, NV       SUNNY     39  30  70 E6        30.15R WCI  35
POCATELLO, ID  MOSUNNY   47  33  58 CALM      30.15R
BURLEY, ID     SUNNY     40  34  79 SW7       30.14R
FORT BRIDGER,    N/A     49  29  46 S3        30.27S
EVANSTON, WY   SUNNY     42  27  55 SE5       30.24S
ROCK SPRINGS,  SUNNY     41  28  60 S8        30.24R
KEMMERER, WY   SUNNY     39  28  65 N6        30.25S WCI  35

$$




USA.gov is the U.S. government's official web portal to all federal, state and local government web resources and services.